Weather History for Fitchburg, MA

Change the Weather History Date:

Thursday, May 2, 2013

  Actual Average (KORH) Record (KORH)
Temperature  
Mean Temperature 64 °F 52 °F  
Max Temperature 82 °F 62 °F 87 °F (2001)
Min Temperature 48 °F 43 °F 29 °F (1948)
Degree Days  
Heating Degree Days 2 13  
Month to date heating degree days 26  
Since 1 July heating degree days 6373  
Cooling Degree Days 0 0  
Month to date cooling degree days 0  
Year to date cooling degree days 3  
Growing Degree Days 14 (Base 50)    
Moisture  
Dew Point 37 °F    
Average Humidity 46    
Maximum Humidity 68    
Minimum Humidity 19    
Precipitation  
Precipitation 0.00 in 0.13 in 1.28 in (1989)
Month to date precipitation 0.25  
Year to date precipitation 15.29  
Sea Level Pressure  
Sea Level Pressure 30.43 in    
Wind  
Wind Speed 3 mph (ENE)    
Max Wind Speed 13 mph    
Max Gust Speed 22 mph    
Visibility 10 miles    
Events      
T = Trace of Precipitation, MM = Missing Value Source: NWS Daily Summary

Daily Weather History Graph

Daily Weather History Graph

Search for Another Location

Airport:

Trip Planner

Search our weather history database for the weather conditions in past years. The results will help you decide how hot, cold, wet, or windy it might be!

Date:

Astronomy

May. 02, 2013 Rise Set
Actual Time 5:40 AM EDT 7:48 PM EDT
Civil Twilight 5:09 AM EDT 8:19 PM EDT
Nautical Twilight 4:31 AM EDT 8:57 PM EDT
Astronomical Twilight 3:49 AM EDT 9:39 PM EDT
Moon 1:35 AM EDT (5/2) 12:25 PM EDT (5/2)
Length of Visible Light 15h 10m
Length of Day
14h 08m
Waning Gibbous, 48% of the Moon is Illuminated
May 2
Waning Gibbous
May 9
New
May 18
First Quarter
May 25
Full
May 31
Last Quarter

Hourly Weather History & Observations

Time (EDT) Temp. Dew Point Humidity Pressure Visibility Wind Dir Wind Speed Gust Speed Precip Events Conditions
12:52 AM 48.9 °F 37.0 °F 64% 30.46 in 10.0 mi Calm Calm - N/A   Clear
1:52 AM 52.0 °F 39.9 °F 63% 30.44 in 10.0 mi NW 6.9 mph - N/A   Clear
2:52 AM 52.0 °F 39.9 °F 63% 30.43 in 10.0 mi NW 5.8 mph - N/A   Clear
3:52 AM 51.1 °F 39.0 °F 63% 30.42 in 10.0 mi Calm Calm - N/A   Clear
4:52 AM 52.0 °F 37.9 °F 59% 30.42 in 10.0 mi Calm Calm - N/A   Clear
5:52 AM 50.0 °F 37.9 °F 63% 30.43 in 10.0 mi Calm Calm - N/A   Clear
6:52 AM 50.0 °F 39.9 °F 68% 30.44 in 10.0 mi Calm Calm - N/A   Clear
7:52 AM 57.9 °F 39.9 °F 51% 30.44 in 10.0 mi Calm Calm - N/A   Clear
8:52 AM 63.0 °F 41.0 °F 45% 30.44 in 10.0 mi Calm Calm - N/A   Clear
9:52 AM 68.0 °F 41.0 °F 37% 30.43 in 10.0 mi ESE 3.5 mph - N/A   Clear
10:52 AM 72.0 °F 35.1 °F 26% 30.42 in 10.0 mi Calm Calm - N/A   Clear
11:52 AM 75.0 °F 32.0 °F 21% 30.39 in 10.0 mi Calm Calm - N/A   Clear
12:52 PM 79.0 °F 33.1 °F 19% 30.37 in 10.0 mi Variable 6.9 mph - N/A   Scattered Clouds
1:52 PM 79.0 °F 33.1 °F 19% 30.35 in 10.0 mi SE 8.1 mph 16.1 mph N/A   Clear
2:52 PM 78.1 °F 32.0 °F 19% 30.34 in 10.0 mi East 8.1 mph - N/A   Mostly Cloudy
3:52 PM 78.1 °F 33.1 °F 19% 30.33 in 10.0 mi SE 11.5 mph 20.7 mph N/A   Clear
4:52 PM 69.1 °F 41.0 °F 36% 30.37 in 10.0 mi ENE 12.7 mph 21.9 mph N/A   Clear
5:52 PM 61.0 °F 41.0 °F 48% 30.42 in 10.0 mi NE 10.4 mph 16.1 mph N/A   Scattered Clouds
6:52 PM 55.9 °F 39.0 °F 53% 30.45 in 10.0 mi ENE 8.1 mph - N/A   Mostly Cloudy
7:52 PM 53.1 °F 35.1 °F 50% 30.48 in 10.0 mi ENE 10.4 mph - N/A   Overcast
8:52 PM 52.0 °F 33.1 °F 49% 30.51 in 10.0 mi Calm Calm - N/A   Overcast
9:52 PM 51.1 °F 34.0 °F 52% 30.50 in 10.0 mi Calm Calm - N/A   Overcast
10:52 PM 51.1 °F 35.1 °F 54% 30.50 in 10.0 mi ENE 3.5 mph - N/A   Overcast
11:52 PM 48.0 °F 36.0 °F 63% 30.50 in 10.0 mi Calm Calm - N/A   Scattered Clouds